Погода в Казанском

Россия / Тюменская область     55°38′26″N   69°13′18″E
темп.,
°C
ветер,
м/с
пор.,
м/с
влажн.,
%
обл.,
%
осадки,
мм/ч
давл.,
гПа
погр.,
м
24 июля, сб
сб2423:00+22ююз34639 0.0 100260
02:00+22ю35615 0.0 100299
05:00+21ююз4963100 0.1 1002200
08:00+23з4671100 0.0 1003370
11:00+27зюз4554100 0.0 1004940
14:00+27юз1460100 0.0 1004799
17:00+29юз6944100 0.0 10041792
20:00+24вюв1158100 0.0 100411
25 июля, вс
вс2523:00+22з2262100 0.0 100423
02:00+20сз2373100 0.1 100453
05:00+18ююв31088100 0.7 1004230
08:00+19ссз1188100 0.2 100455
11:00+19с3496100 0.7 1004184
14:00+18ссз4797100 4.6 1004336
17:00+18ссз51089100 7.3 1005763
20:00+17сз510837 0.1 1007379
26 июля, пн
пн2623:00+16сз612875 0.1 1008445
02:00+14сз91383100 0.0 1009683
05:00+12сз6137283 0.0 1011724
08:00+15сз710585 0.0 1011948
11:00+19сз810443 0.0 10121987
14:00+19сз9103987 0.0 10122408
17:00+18сз71043100 0.0 10132217
20:00+15зсз5950100 0.0 1013783
27 июля, вт
вт2723:00+14з51056100 0.0 1013438
02:00+11з4106674 0.0 1013240
05:00+13з4106291 0.0 1013355
08:00+16зсз585489 0.0 1013549
11:00+20з684335 0.0 10122092
14:00+21з6843100 0.0 10112224
17:00+20з585683 0.2 10101236
20:00+15зсз41087100 1.6 1010283
28 июля, ср
ср2823:00+13зюз3793100 1.8 1011188
02:00+13юз369675 0.5 1010222
05:00+11з249774 0.5 101098
08:00+15сз238585 0.0 1010463
11:00+17ссз336618 0.6 1010922
14:00+20ссз334854 0.6 10101743
17:00+20ссз344456 0.6 10101779
20:00+16ссз4760100 0.0 1011286